Regional Weather Roundup
Issued by NWS Austin/San Antonio, TX

Current Version | Previous Version | Text Only | Print | Product List | Glossary On
Versions: 1 2 3 4 5 6 7 8 9 10 11 12 13 14 15 16 17 18 19 20 21 22 23 24 25 26 27 28 29 30 31 32 33 34 35 36 37 38 39 40 41 42 43 44 45 46 47 48 49 50
724
ASUS44 KEWX 130801
RWREWX
SOUTH TEXAS REGIONAL WEATHER ROUNDUP
NATIONAL WEATHER SERVICE AUSTIN/SAN ANTONIO TX
300 AM CDT SUN JUN 13 2021

NOTE: "FAIR" INDICATED FEW OR NO CLOUDS BELOW 12,000 FEET WITH NO
SIGNIFICANT WEATHER AND/OR OBSTRUCTIONS TO VISIBILITY.

* - THESE STATIONS ARE NOT NWS OR FAA STATIONS...AND ARE NOT SUBJECT
    TO NWS AND FAA QUALITY CONTROL.

TXZ171-172-183>190-130900-
TEXAS HILL COUNTRY AND EDWARDS PLATEAU

CITY           SKY/WX    TMP DP  RH WIND       PRES   REMARKS
JUNCTION       CLEAR     76  68  76 CALM      30.00F
*LLANO         PTCLDY    73  70  88 W6        29.94F
BURNET         CLEAR     74  70  87 CALM      29.98S
*HORSESHOE BAY CLEAR     77  70  78 SW6       29.96F
*LAGO VISTA    CLEAR     76  71  83 SW3       29.97S
*KERRVILLE     CLEAR     73  69  89 SE3       30.00F
*FREDERICKSBRG CLEAR    N/A N/A N/A SW6       29.99F
*ROCKSPRINGS     N/A     73  70  88 MISG      30.07F
*BOERNE        CLEAR     72  72 100 SW5       29.98F
*CASTROVILLE   CLEAR     77  76  95 CALM      29.97F
HONDO          CLEAR     75  72  90 S3        29.96F
*UVALDE        CLEAR     73  73 100 NE5       29.98F
DEL RIO        CLEAR     84  72  67 E12       29.93F
*LAUGHLIN AFB  NOT AVBL
*SPOFFORD      CLEAR     77  75  92 E7        29.89F
*EAGLE PASS    CLEAR     81  73  78 SE7       29.94S
CARRIZO SPRGS  CLEAR    N/A N/A N/A SE5       29.93S
$$

TXZ173-191>194-202-209-217>225-228-130900-
CENTRAL AND SOUTH CENTRAL TEXAS

CITY           SKY/WX    TMP DP  RH WIND       PRES   REMARKS
GEORGETOWN     CLEAR     74  71  91 CALM      29.97S
*TAYLOR        CLEAR     73 N/A N/A S3        29.94F
AUSTIN/BERGSTM PTCLDY    74  72  93 CALM      29.93S
AUSTIN/MABRY   CLEAR     78  71  79 CALM      29.95R
*PFLUGERVILLE  CLEAR     75  73  94 CALM      29.94R
SAN MARCOS     CLEAR     77  77 100 SW6       29.94F
NEW BRAUNFELS  PTCLDY    76  73  91 SW7       29.94R
*RANDOLPH AFB  CLEAR     77  74  93 SW6       29.94S
*SEGUIN        CLOUDY    76  74  94 SW6       29.98S
SAN ANTONIO    PTCLDY    78  73  84 SW10      29.95F
STINSON FIELD  CLEAR     78  73  84 SW3       29.93S
*KELLY FIELD   CLEAR     76  74  93 CALM      29.94S
*PLEASANTON    CLEAR     75  73  93 CALM      29.95S
*KENEDY        MOCLDY    77  75  95 SW5       29.93F
*LA GRANGE     PTCLDY    79  79 100 CALM      29.92S
*GIDDINGS      PTCLDY    77  74  91 CALM      29.95S
*GONZALES      PTCLDY    76  76  98 CALM      29.93S
$$

TXZ163>164-176>182-195>201-210>213-226-227-235-130900-
SOUTHEAST TEXAS

CITY           SKY/WX    TMP DP  RH WIND       PRES   REMARKS
COLLEGE STN    PTCLDY    79  74  84 SE3       29.94S
*BRYAN         MOCLDY    78  77  96 CALM      29.95S
*CALDWELL      PTCLDY    76  74  94 SE3       29.95R
*CROCKETT      PTCLDY    73  73 100 CALM      29.92F
*BRENHAM       PTCLDY    80  77  90 CALM      29.94S
HUNTSVILLE     PTCLDY    81  79  94 VRB3      29.93F HX  90
CONROE         CLOUDY    81  75  82 SW5       29.93F
HOUSTON BUSH   CLOUDY    83  74  74 VRB7      29.92F
HOUSTON HOBBY  MOCLDY    82  74  76 SW6       29.92F
*HOUSTON SW AP MOCLDY    77  76  95 CALM      29.94S
PEARLAND       MOCLDY    79  75  87 CALM      29.94S
HOUSTON HOOKS  MOCLDY    81  75  82 CALM      29.93S
ELLINGTON FLD  PTCLDY    81  75  83 S6        29.92F
SUGAR LAND     MOCLDY    80  76  87 CALM      29.93S
*HOUSTON EXEC    N/A     79  77  94 CALM      29.95S
*CLEVELAND MUN MOCLDY    78  78  98 CALM      29.93S
*WHARTON       CLEAR     74  72  93 CALM      29.94S FOG
*COLUMBUS      FAIR      76  75  96 CALM      29.94S
*EAGLE LAKE    PTCLDY    78  76  92 CALM      29.94R
$$

TXZ214>216-236>238-130900-
THE UPPER TEXAS COAST

CITY           SKY/WX    TMP DP  RH WIND       PRES   REMARKS
*ORANGE        MOCLDY    80  76  86 SW3       29.92F
PORT ARTHUR    MOCLDY    76  76 100 SW5       29.90F
GALVESTON      PTCLDY    82  75  79 SW3       29.94S
ANGLETON       MOCLDY    76  73  91 CALM      29.93S
*BAY CITY      NOT AVBL
PALACIOS       PTCLDY    80  77  90 SW6       29.92S
$$

TXZ229>234-239>247-130900-
TEXAS COASTAL BEND AND RIO GRANDE PLAINS

CITY           SKY/WX    TMP DP  RH WIND       PRES   REMARKS
VICTORIA       CLEAR     77  74  90 S3        29.93R
*BEEVILLE      CLEAR     77  77 100 CALM      29.92S
ROCKPORT       CLEAR     80  76  87 SW5       29.90F
*PORT ARANSAS  PTCLDY    81  76  85 S10       29.92F
*PORT LAVACA   CLEAR     76  73  90 CALM      29.92S
*INGLESIDE     CLEAR     81  77  87 S8        29.90F
CORPUS CHRISTI CLEAR     76  76 100 S5        29.91F
CORPUS NAS     PTCLDY    80  76  87 S5        29.90F
*ROBSTOWN      CLEAR     79  78  96 S6        29.92F
ALICE          PTCLDY    74  74 100 S3        29.92F
KINGSVILLE NAS CLEAR     75  74  96 CALM      29.92F FOG
COTULLA        NOT AVBL
LAREDO         CLEAR     79  73  82 SE7       29.93S
$$

TXZ248>255-130900-
DEEP SOUTH TEXAS

CITY           SKY/WX    TMP DP  RH WIND       PRES   REMARKS
BROWNSVILLE    CLEAR     78  74  87 SE5       29.90F
PORT ISABEL    CLEAR     78  74  87 SE5       29.91F
HARLINGEN      CLEAR     73  73 100 CALM      29.91F FOG
*HEBBRONVILLE  MOCLDY    74  68  80 CALM      29.96S
MCALLEN        CLEAR     75  73  93 CALM      29.92F
*WESLACO       PTCLDY    76  73  92 CALM      29.91F
FALFURRIAS     CLEAR     73  73 100 CALM      29.93R
EDINBURG       CLEAR     75  74  98 S3        29.92F
*ZAPATA        CLEAR     80  72  77 SE5       29.93F
$$

TXZ213>215-236>238-242>244-246-247-251-254-255-130900-
CMAN STATIONS

STATION/POSITION TIME  TEMP    WIND        PRES    WAVE
                       AIR SEA DIR/SP/G            HT/PER
                 (UTC) (F)     (DEG/KT/KT) (MB)    (FT/S)
NORTH JETTY/GLS  0730   83 85  250/  6/  7 1012.5
EAGLE POINT      0730   81 87  250/  4/  6 1013.1
MORGANS POINT    0730   82 84  240/  4/  6 1013.4
MISSION/ARANSAS  0700   82     180/ 10     1014.0
PORT O`CONNOR    0730   81 88  200/  8/ 10 1012.8
PORT ARANSAS     0700   81 85  170/ 12/ 14 1013.1
MALAQUITE BEACH  0730   80     150/  8/  9   N/A
BAFFIN BAY       0730   80 87  130/  7/ 10 1012.7
PORT ISABEL      0730   81 81  150/  6/  8 1013.9
$$




USA.gov is the U.S. government's official web portal to all federal, state and local government web resources and services.